User: anonymous   Login
Location: Unspecified
(0.0000°N, 0.0000°E)
Time: 13:37:50
(UTC+02:00)
Language:

Cosmos 407 Rocket - Orbit

View from above orbital plane
View from above orbital plane
View from above satellite
View from above satellite

Ground track
Ground track

The orbit data is extracted from the following two-line orbital elements,

1 05175U 71035B   15152.40162117  .00000209  00000-0  77716-4 0  9993
2 05175 074.0465 143.1096 0030044 179.5626 180.5560 14.37694133307610
Epoch (UTC): 01 June 2015 09:38:20
Eccentricity: 0.0030044
inclination: 74.0465°
perigee height: 744 km
apogee height: 787 km
right ascension of ascending node: 143.1096°
argument of perigee: 179.5626°
revolutions per day: 14.37694133
mean anomaly at epoch: 180.5560°
orbit number at epoch: 30761

The dashed part of the orbit path shows where the satellite is in the earth's shadow,  

DLR